Home > Weather > Peristeri > Past weeks

Flag for Greece Past Weather in Peristeri, Greece — Yesterday and Last 2 Weeks

Now
84 °F

Sunny.


Feels Like: 82 °F
Forecast: 64 / 93 °F
Wind: 10 mph from South

Location: Elefsis Airport

Current Time: May 30, 2016 at 5:43:54 PM

Latest Report: May 30, 2016 at 4:50 PM


Visibility: 10 mi

Pressure: 29.86 "Hg

Humidity: 31%

Dew Point: 50 °F

Location of PeristeriLocation

Past Weather in Peristeri — Graph

°F

Peristeri Temperature Yesterday

Maximum temperature yesterday: 84 °F (at 1:50 PM)
Minimum temperature yesterday: 63 °F (at 3:20 AM)
Average temperature yesterday: 73 °F

High & Low Weather Summary for the Past Weeks

 TemperatureHumidityPressure
High88 °F (May 27, 2:50 PM)100% (May 27, 2:50 PM)30.04 "Hg (May 27, 2:50 PM)
Low54 °F (May 23, 3:50 AM)15% (May 24, 11:50 PM)29.65 "Hg (May 21, 2:50 PM)
Average70 °F48%29.91 "Hg
* Reported May 15 3:20 PM — May 30 3:50 PM, Peristeri, Weather by CustomWeather, © 2016

Note: Actual official high and low records may vary slightly from our data, if they occured in-between our weather recording intervals... More about our weather records

Advertising

Peristeri Weather History for the Previous 24 Hours

Scroll right to see more
 ConditionsComfort  
Time TempWeatherWind HumidityBarometerVisibility
3:50 PM
Mon, May 30
84 °FBroken clouds.10 mph35%29.89 "HgN/A
3:20 PM84 °FBroken clouds.7 mph33%29.89 "HgN/A
2:50 PM82 °FBroken clouds.7 mph35%29.89 "HgN/A
2:20 PM82 °FBroken clouds.9 mph35%29.89 "HgN/A
1:50 PM81 °FBroken clouds.6 mph39%29.92 "HgN/A
1:20 PM81 °FBroken clouds.7 mph39%29.92 "HgN/A
12:50 PM82 °FScattered clouds.10 mph35%29.89 "HgN/A
11:50 AM82 °FSunny.6 mph40%29.89 "Hg10 mi
11:20 AM82 °FSunny.6 mph40%29.89 "Hg10 mi
10:50 AM81 °FSunny.5 mph37%29.89 "Hg10 mi
10:20 AM79 °FSunny.6 mph42%29.89 "Hg10 mi
9:50 AM79 °FSunny.No wind45%29.89 "Hg10 mi
9:20 AM77 °FSunny.No wind51%29.92 "Hg10 mi
8:50 AM75 °FSunny.No wind50%29.92 "Hg10 mi
7:50 AM70 °FSunny.5 mph57%29.89 "Hg10 mi
7:20 AM66 °FSunny.5 mph60%29.89 "Hg10 mi
6:50 AM63 °FClear.No wind68%29.89 "Hg10 mi
6:20 AM63 °FClear.No wind68%29.89 "Hg10 mi
5:50 AM61 °FClear.No wind77%29.89 "Hg10 mi
5:20 AM61 °FClear.No wind77%29.89 "Hg10 mi
4:50 AM63 °FClear.No wind73%29.89 "Hg10 mi
4:20 AM63 °FClear.No wind73%29.89 "Hg10 mi
3:50 AM63 °FClear.No wind73%29.89 "Hg10 mi
3:20 AM63 °FClear.No wind77%29.89 "Hg10 mi
2:50 AM64 °FClear.No wind73%29.92 "Hg10 mi
2:20 AM64 °FClear.No wind73%29.92 "Hg10 mi
1:50 AM66 °FClear.No wind73%29.92 "Hg10 mi
1:20 AM66 °FClear.No wind68%29.92 "Hg10 mi
12:50 AM66 °FClear.No wind68%29.92 "Hg10 mi
12:20 AM66 °FClear.No wind68%29.92 "Hg10 mi
11:50 PM
Sun, May 29
66 °FClear.No wind68%29.92 "Hg10 mi
11:20 PM68 °FClear.No wind69%29.92 "Hg10 mi
10:50 PM70 °FClear.No wind64%29.92 "Hg10 mi
10:20 PM70 °FClear.No wind64%29.92 "Hg10 mi
9:50 PM72 °FClear.No wind61%29.92 "Hg10 mi
9:20 PM72 °FSunny.No wind57%29.92 "Hg10 mi
8:50 PM73 °FSunny.No wind53%29.92 "Hg10 mi
8:20 PM73 °FSunny.5 mph53%29.92 "Hg10 mi
7:50 PM73 °FSunny.9 mph53%29.92 "Hg10 mi
7:20 PM75 °FSunny.9 mph50%29.92 "Hg10 mi
6:50 PM77 °FSunny.13 mph42%29.92 "Hg10 mi
6:20 PM81 °FSunny.10 mph42%29.89 "Hg10 mi
5:50 PM81 °FSunny.10 mph39%29.89 "Hg10 mi
5:20 PM81 °FSunny.10 mph39%29.92 "Hg10 mi
Weather by CustomWeather, © 2016

See weather overviewHow to use our weather pages